�������l�o���
Date,Time,MP-1(��Sv/h),MP-2(��Sv/h),MP-3(��Sv/h),MP-4(��Sv/h),MP-5(��Sv/h),MP-6(��Sv/h),MP-7(��Sv/h),MP-8(��Sv/h),����,����(m/s),���J
2017/07/15,00:00,0.998,1.600,1.066,1.891,1.318,0.528,0.970,0.892,��,6.3,��
2017/07/15,00:10,1.001,1.602,1.069,1.890,1.317,0.529,0.969,0.892,��쐼,4.8,��
2017/07/15,00:20,0.999,1.602,1.069,1.893,1.315,0.530,0.970,0.893,��,5.7,��
2017/07/15,00:30,1.001,1.604,1.068,1.894,1.319,0.529,0.969,0.891,��,6.3,��
2017/07/15,00:40,1.003,1.602,1.068,1.892,1.318,0.530,0.969,0.890,��,5.7,��
2017/07/15,00:50,1.002,1.603,1.068,1.890,1.317,0.529,0.971,0.893,��쐼,5.3,��
2017/07/15,01:00,1.004,1.602,1.069,1.892,1.318,0.529,0.971,0.891,��쐼,4.7,��
2017/07/15,01:10,1.004,1.604,1.070,1.892,1.319,0.530,0.970,0.893,��쐼,4.6,��
2017/07/15,01:20,1.003,1.602,1.068,1.894,1.318,0.529,0.970,0.891,�쐼,4.7,��
2017/07/15,01:30,1.004,1.601,1.069,1.893,1.318,0.531,0.972,0.893,��쐼,4.7,��
2017/07/15,01:40,1.002,1.604,1.068,1.893,1.316,0.529,0.969,0.893,��쐼,4.0,��
2017/07/15,01:50,1.006,1.604,1.068,1.893,1.316,0.529,0.969,0.893,�쐼,4.0,��
2017/07/15,02:00,1.001,1.603,1.071,1.889,1.318,0.529,0.969,0.892,�쐼,4.6,��
2017/07/15,02:10,1.006,1.605,1.071,1.895,1.317,0.530,0.971,0.893,��쐼,4.0,��
2017/07/15,02:20,1.002,1.605,1.069,1.891,1.318,0.529,0.971,0.892,��쐼,4.9,��
2017/07/15,02:30,1.003,1.602,1.070,1.893,1.318,0.529,0.970,0.895,�쐼,5.2,��
2017/07/15,02:40,1.004,1.605,1.069,1.892,1.317,0.530,0.969,0.894,��쐼,5.9,��
2017/07/15,02:50,1.003,1.603,1.069,1.890,1.319,0.529,0.969,0.892,��,3.9,��
2017/07/15,03:00,1.003,1.604,1.071,1.891,1.318,0.531,0.971,0.892,��,3.2,��
2017/07/15,03:10,1.002,1.603,1.069,1.891,1.318,0.529,0.970,0.892,��,3.6,��
2017/07/15,03:20,1.003,1.605,1.071,1.890,1.316,0.529,0.971,0.893,��,2.9,��
2017/07/15,03:30,1.002,1.603,1.068,1.889,1.319,0.529,0.972,0.892,��,3.7,��
2017/07/15,03:40,1.005,1.608,1.068,1.893,1.317,0.530,0.970,0.892,��쐼,2.9,��
2017/07/15,03:50,1.004,1.605,1.068,1.892,1.318,0.529,0.970,0.892,��,3.3,��
2017/07/15,04:00,1.003,1.605,1.069,1.891,1.316,0.528,0.969,0.891,��쐼,3.8,��
2017/07/15,04:10,1.004,1.604,1.069,1.893,1.320,0.528,0.969,0.893,��쐼,5.1,��
2017/07/15,04:20,1.002,1.602,1.070,1.894,1.317,0.530,0.969,0.891,��,4.1,��
2017/07/15,04:30,1.004,1.602,1.068,1.891,1.320,0.529,0.969,0.892,��,3.5,��
2017/07/15,04:40,1.004,1.605,1.068,1.893,1.317,0.529,0.971,0.892,��,3.0,��
2017/07/15,04:50,1.003,1.604,1.067,1.890,1.317,0.529,0.970,0.893,��,4.1,��
2017/07/15,05:00,1.002,1.603,1.069,1.892,1.318,0.529,0.971,0.892,��쐼,2.6,��
2017/07/15,05:10,1.006,1.604,1.068,1.894,1.318,0.530,0.970,0.893,��쐼,2.6,��
2017/07/15,05:20,1.003,1.604,1.069,1.893,1.316,0.529,0.969,0.892,��쐼,1.7,��
2017/07/15,05:30,1.003,1.606,1.067,1.892,1.317,0.530,0.972,0.894,�쐼,2.3,��
2017/07/15,05:40,1.006,1.606,1.068,1.895,1.319,0.529,0.969,0.893,���쐼,1.9,��
2017/07/15,05:50,1.004,1.605,1.068,1.893,1.318,0.530,0.969,0.893,��,1.4,��
2017/07/15,06:00,1.006,1.604,1.068,1.893,1.319,0.530,0.970,0.892,���k��,1.7,��
2017/07/15,06:10,1.004,1.606,1.071,1.894,1.319,0.531,0.972,0.894,�k�k��,1.2,��
2017/07/15,06:20,1.006,1.607,1.069,1.891,1.319,0.531,0.968,0.894,�k�k��,1.5,��
2017/07/15,06:30,1.004,1.606,1.068,1.896,1.317,0.529,0.971,0.895,�k�k��,1.4,��
2017/07/15,06:40,1.004,1.606,1.069,1.896,1.319,0.529,0.971,0.894,�k��,1.4,��
2017/07/15,06:50,1.008,1.606,1.070,1.893,1.319,0.531,0.971,0.894,-,CALM,��
2017/07/15,07:00,1.008,1.604,1.071,1.894,1.318,0.531,0.970,0.892,-,CALM,��
2017/07/15,07:10,1.006,1.607,1.071,1.894,1.319,0.530,0.969,0.894,��,0.6,��
2017/07/15,07:20,1.005,1.604,1.070,1.893,1.318,0.529,0.974,0.894,�k�k��,1.1,��
2017/07/15,07:30,1.007,1.606,1.070,1.896,1.321,0.532,0.972,0.892,-,CALM,��
2017/07/15,07:40,1.008,1.603,1.069,1.894,1.319,0.531,0.968,0.893,�k,0.6,��
2017/07/15,07:50,1.006,1.607,1.072,1.896,1.320,0.531,0.971,0.896,��,0.6,��
2017/07/15,08:00,1.006,1.607,1.070,1.895,1.318,0.531,0.971,0.893,�쓌,0.6,��
2017/07/15,08:10,1.009,1.606,1.070,1.897,1.321,0.531,0.969,0.890,�k��,0.6,��
2017/07/15,08:20,1.009,1.604,1.071,1.896,1.320,0.532,0.972,0.891,�k�k��,1.2,��
2017/07/15,08:30,1.007,1.603,1.070,1.897,1.322,0.532,0.973,0.889,�k��,1.2,��
2017/07/15,08:40,1.006,1.604,1.071,1.896,1.323,0.533,0.974,0.892,���k��,1.2,��
2017/07/15,08:50,1.007,1.601,1.069,1.899,1.322,0.533,0.972,0.890,��,1.7,��
2017/07/15,09:00,1.006,1.601,1.070,1.898,1.322,0.531,0.974,0.891,��,1.7,��
2017/07/15,09:10,1.009,1.603,1.069,1.899,1.321,0.532,0.971,0.890,���쓌,2.0,��
2017/07/15,09:20,1.009,1.603,1.072,1.900,1.323,0.532,0.970,0.891,�쓌,3.2,��
2017/07/15,09:30,1.009,1.603,1.072,1.901,1.324,0.533,0.972,0.893,��쓌,2.8,��
2017/07/15,09:40,1.006,1.601,1.071,1.899,1.322,0.531,0.971,0.891,��쓌,2.6,��
2017/07/15,09:50,1.006,1.602,1.069,1.898,1.321,0.530,0.971,0.890,��쓌,1.7,��
2017/07/15,10:00,1.006,1.604,1.068,1.900,1.321,0.530,0.969,0.889,��,1.7,��
2017/07/15,10:10,1.006,1.603,1.068,1.900,1.325,0.532,0.970,0.891,��쓌,1.7,��
2017/07/15,10:20,1.007,1.605,1.070,1.901,1.325,0.530,0.970,0.891,��쓌,1.2,��
2017/07/15,10:30,1.008,1.602,1.069,1.901,1.324,0.531,0.971,0.892,��,2.2,��
2017/07/15,10:40,1.008,1.604,1.071,1.900,1.325,0.530,0.971,0.890,��쓌,3.3,��
2017/07/15,10:50,1.007,1.606,1.074,1.898,1.324,0.532,0.971,0.891,��쓌,4.8,��
2017/07/15,11:00,1.008,1.604,1.071,1.902,1.325,0.533,0.971,0.891,��쓌,5.1,��
2017/07/15,11:10,1.007,1.606,1.073,1.900,1.327,0.531,0.971,0.890,��쓌,5.7,��
2017/07/15,11:20,1.007,1.604,1.072,1.899,1.327,0.532,0.972,0.891,��,7.1,��
2017/07/15,11:30,1.010,1.604,1.074,1.899,1.327,0.530,0.972,0.892,��,7.1,��
2017/07/15,11:40,1.011,1.608,1.076,1.899,1.329,0.531,0.972,0.891,��,6.5,��
2017/07/15,11:50,1.008,1.608,1.076,1.903,1.327,0.533,0.972,0.892,��,7.7,��
2017/07/15,12:00,1.011,1.608,1.076,1.899,1.333,0.532,0.973,0.893,��,7.7,��
2017/07/15,12:10,1.011,1.609,1.075,1.902,1.329,0.532,0.974,0.892,��,8.2,��
2017/07/15,12:20,1.012,1.609,1.077,1.900,1.331,0.531,0.973,0.891,��,8.7,��
2017/07/15,12:30,1.011,1.612,1.076,1.901,1.335,0.532,0.974,0.894,��,9.1,��
2017/07/15,12:40,1.011,1.612,1.075,1.899,1.332,0.531,0.973,0.894,��,7.7,��
2017/07/15,12:50,1.009,1.611,1.076,1.904,1.330,0.531,0.975,0.893,��,8.8,��
2017/07/15,13:00,1.011,1.613,1.076,1.903,1.333,0.531,0.974,0.894,��,8.2,��
2017/07/15,13:10,1.012,1.612,1.077,1.904,1.334,0.530,0.973,0.893,��,8.7,��
2017/07/15,13:20,1.015,1.610,1.079,1.903,1.334,0.530,0.972,0.892,��,8.2,��
2017/07/15,13:30,1.012,1.611,1.077,1.905,1.333,0.530,0.971,0.892,��,8.2,��
2017/07/15,13:40,1.012,1.612,1.074,1.901,1.332,0.532,0.973,0.892,��,8.5,��
2017/07/15,13:50,1.009,1.611,1.076,1.904,1.330,0.531,0.973,0.894,��,8.6,��
2017/07/15,14:00,1.011,1.612,1.075,1.902,1.333,0.530,0.973,0.893,��,8.0,��
2017/07/15,14:10,1.012,1.613,1.075,1.904,1.335,0.528,0.972,0.893,��,7.6,��
2017/07/15,14:20,1.013,1.612,1.075,1.903,1.334,0.531,0.972,0.891,��,7.6,��
2017/07/15,14:30,1.014,1.610,1.076,1.905,1.332,0.529,0.970,0.893,��,7.4,��
2017/07/15,14:40,1.012,1.612,1.075,1.905,1.336,0.531,0.974,0.894,��,6.6,��
2017/07/15,14:50,1.012,1.612,1.077,1.906,1.334,0.529,0.972,0.893,��,6.1,��
2017/07/15,15:00,1.013,1.613,1.077,1.907,1.336,0.532,0.974,0.892,��,6.2,��
2017/07/15,15:10,1.016,1.613,1.076,1.903,1.334,0.532,0.975,0.894,��,6.2,��
2017/07/15,15:20,1.015,1.611,1.078,1.907,1.336,0.533,0.974,0.894,��,5.5,��
2017/07/15,15:30,1.015,1.614,1.079,1.906,1.337,0.531,0.975,0.894,��,6.7,��
2017/07/15,15:40,1.015,1.615,1.078,1.908,1.338,0.533,0.974,0.895,��,6.3,��
2017/07/15,15:50,1.016,1.615,1.079,1.908,1.337,0.532,0.975,0.892,��,6.2,��
2017/07/15,16:00,1.014,1.614,1.078,1.908,1.337,0.531,0.974,0.893,��,6.8,��
2017/07/15,16:10,1.017,1.612,1.078,1.906,1.336,0.531,0.973,0.894,��,5.6,��
2017/07/15,16:20,1.017,1.618,1.081,1.908,1.338,0.533,0.975,0.894,��,6.1,��
2017/07/15,16:30,1.015,1.613,1.080,1.909,1.335,0.531,0.973,0.895,��,5.7,�L
2017/07/15,16:40,1.016,1.616,1.079,1.909,1.336,0.533,0.972,0.895,��,5.2,�L
2017/07/15,16:50,1.016,1.614,1.078,1.911,1.335,0.531,0.973,0.896,��,4.6,�L
2017/07/15,17:00,1.016,1.613,1.079,1.905,1.334,0.531,0.973,0.895,��,4.3,�L
2017/07/15,17:10,1.018,1.614,1.080,1.910,1.333,0.532,0.976,0.895,��쐼,4.4,�L
2017/07/15,17:20,1.016,1.615,1.079,1.906,1.336,0.534,0.972,0.894,��쐼,4.3,�L
2017/07/15,17:30,1.017,1.612,1.079,1.908,1.334,0.533,0.974,0.893,��쐼,4.1,�L
2017/07/15,17:40,1.017,1.611,1.078,1.911,1.334,0.533,0.974,0.895,��쐼,4.3,��
2017/07/15,17:50,1.016,1.613,1.081,1.907,1.335,0.534,0.972,0.894,��쐼,4.1,��
2017/07/15,18:00,1.016,1.615,1.080,1.904,1.336,0.534,0.973,0.895,�쐼,2.8,��
2017/07/15,18:10,1.016,1.615,1.079,1.907,1.336,0.534,0.974,0.895,�쐼,2.6,��
2017/07/15,18:20,1.018,1.615,1.082,1.909,1.337,0.534,0.974,0.895,��쐼,2.8,��
2017/07/15,18:30,1.017,1.615,1.079,1.912,1.338,0.534,0.974,0.895,�쐼,2.6,��
2017/07/15,18:40,1.018,1.617,1.080,1.910,1.333,0.535,0.974,0.895,��쐼,3.0,��
2017/07/15,18:50,1.017,1.615,1.079,1.906,1.335,0.534,0.975,0.897,��쐼,3.6,��
2017/07/15,19:00,1.016,1.615,1.081,1.909,1.337,0.534,0.976,0.895,��쐼,3.8,��
2017/07/15,19:10,1.017,1.614,1.079,1.905,1.337,0.535,0.976,0.897,��쐼,4.0,��
2017/07/15,19:20,1.016,1.614,1.080,1.905,1.334,0.534,0.974,0.897,�쐼,2.9,��
2017/07/15,19:30,1.016,1.615,1.079,1.911,1.335,0.533,0.974,0.895,��쐼,2.9,��
2017/07/15,19:40,1.014,1.612,1.079,1.906,1.333,0.534,0.975,0.897,��쐼,2.5,��
2017/07/15,19:50,1.016,1.612,1.079,1.908,1.330,0.534,0.975,0.894,�쐼,2.3,��
2017/07/15,20:00,1.016,1.614,1.079,1.908,1.336,0.534,0.971,0.895,�쐼,2.6,��
2017/07/15,20:10,1.015,1.615,1.078,1.906,1.336,0.534,0.973,0.894,�쐼,2.3,��
2017/07/15,20:20,1.016,1.616,1.080,1.908,1.334,0.535,0.974,0.895,��쐼,2.9,��
2017/07/15,20:30,1.015,1.615,1.080,1.906,1.335,0.534,0.974,0.895,�쐼,3.3,��
2017/07/15,20:40,1.017,1.615,1.080,1.909,1.335,0.534,0.975,0.896,���쐼,2.5,��
2017/07/15,20:50,1.016,1.613,1.078,1.908,1.333,0.533,0.974,0.895,�쐼,2.2,�L
2017/07/15,21:00,1.017,1.611,1.081,1.906,1.337,0.533,0.975,0.896,���쐼,1.7,��
2017/07/15,21:10,1.018,1.611,1.079,1.907,1.335,0.533,0.976,0.895,��,3.0,��
2017/07/15,21:20,1.015,1.614,1.080,1.911,1.334,0.534,0.974,0.896,���k��,2.6,��
2017/07/15,21:30,1.016,1.611,1.080,1.910,1.337,0.534,0.975,0.898,�k��,2.5,��
2017/07/15,21:40,1.017,1.613,1.080,1.907,1.334,0.534,0.976,0.896,�k��,3.2,��
2017/07/15,21:50,1.017,1.615,1.079,1.910,1.335,0.533,0.975,0.896,�k��,5.4,��
2017/07/15,22:00,1.017,1.615,1.079,1.909,1.333,0.534,0.975,0.896,�k��,6.6,��
2017/07/15,22:10,1.018,1.615,1.080,1.905,1.332,0.536,0.975,0.896,�k��,5.7,��
2017/07/15,22:20,1.017,1.613,1.080,1.908,1.333,0.533,0.976,0.895,�k�k��,4.7,��
2017/07/15,22:30,1.017,1.613,1.081,1.909,1.337,0.534,0.977,0.897,�k�k��,4.7,��
2017/07/15,22:40,1.014,1.616,1.081,1.911,1.334,0.534,0.975,0.896,�k�k��,4.5,��
2017/07/15,22:50,1.017,1.614,1.080,1.909,1.337,0.534,0.976,0.895,�k��,4.5,��
2017/07/15,23:00,1.018,1.616,1.079,1.907,1.334,0.535,0.974,0.895,���k��,4.5,��
2017/07/15,23:10,1.018,1.613,1.081,1.910,1.334,0.534,0.976,0.896,���k��,4.1,��
2017/07/15,23:20,1.015,1.613,1.081,1.911,1.335,0.533,0.974,0.897,�k��,2.3,��
2017/07/15,23:30,1.015,1.614,1.080,1.908,1.335,0.534,0.977,0.897,�k��,2.5,��
2017/07/15,23:40,1.016,1.613,1.078,1.910,1.335,0.534,0.976,0.896,�k��,2.5,��
2017/07/15,23:50,1.016,1.616,1.081,1.911,1.332,0.533,0.976,0.895,�k��,3.9,�L
